Meteor 1-31 Rocket - Orbit

View from above orbital plane
View from above orbital plane
View from above satellite
View from above satellite

Ground track
Ground track

The orbit data is extracted from the following two-line orbital elements,

1 12586U 81065B   13142.49767543  .00001662  00000-0  12381-3 0  1061
2 12586 097.3980 152.6240 0020124 254.9590 104.9409 15.04082866732507
Epoch (UTC): 22 May 2013 11:56:39
Eccentricity: 0.0020124
inclination: 97.3980°
perigee height: 540 km
apogee height: 568 km
right ascension of ascending node: 152.6240°
argument of perigee: 254.9590°
revolutions per day: 15.04082866
mean anomaly at epoch: 104.9409°
orbit number at epoch: 73250

The dashed part of the orbit path shows where the satellite is in the earth's shadow,  

Developed and maintained by Chris Peat, Heavens-Above GmbH. Please read the updated FAQ before sending e-mail. Imprint. DLR